BEL5ZK EBBR-LJLJ

Flight info

Callsign BEL5ZK
Flight time 1h 16m
Altitude 39000
Route PITES DCT EDISA DCT UTABA DCT UMVEG DCT DEGUM DEGUM2L
Aircraft A320/M-DE3FGHIJ1LORVWY/H

Departure

Time 2026-04-14 08:30
Airport Brussels Airport (EBBR)

Arrival

Time 2026-04-14 09:47
Airport Ljubljana Jože Pučnik Airport (LJLJ)
Time Latitude Longitude Altitude Speed Heading
2026-04-14 08:05 50.90345 4.48370 121 ft 0 kts 155°
2026-04-14 08:22 50.90365 4.48355 119 ft 4 kts 147°
2026-04-14 08:22 50.90381 4.48329 117 ft 4 kts 92°
2026-04-14 08:23 50.90381 4.48316 118 ft 0 kts 65°
2026-04-14 08:25 50.90383 4.48322 121 ft 3 kts 65°
2026-04-14 08:25 50.90418 4.48350 118 ft 10 kts
2026-04-14 08:25 50.90472 4.48473 119 ft 17 kts 64°
2026-04-14 08:25 50.90522 4.48656 120 ft 19 kts 65°
2026-04-14 08:26 50.90578 4.48845 119 ft 14 kts 65°
2026-04-14 08:26 50.90620 4.48990 118 ft 15 kts 66°
2026-04-14 08:26 50.90661 4.49130 118 ft 13 kts 65°
2026-04-14 08:26 50.90695 4.49249 121 ft 11 kts 65°
2026-04-14 08:27 50.90724 4.49347 120 ft 9 kts 65°
2026-04-14 08:27 50.90746 4.49425 122 ft 8 kts 65°
2026-04-14 08:27 50.90778 4.49534 121 ft 12 kts 65°
2026-04-14 08:27 50.90811 4.49650 124 ft 11 kts 65°
2026-04-14 08:28 50.90850 4.49737 121 ft 9 kts 32°
2026-04-14 08:28 50.90926 4.49796 119 ft 14 kts 31°
2026-04-14 08:28 50.91001 4.49885 119 ft 14 kts 33°
2026-04-14 08:28 50.91088 4.49944 120 ft 13 kts 11°
2026-04-14 08:29 50.91145 4.49918 116 ft 4 kts 308°
2026-04-14 08:29 50.91142 4.49895 118 ft 2 kts 248°
2026-04-14 08:29 50.91141 4.49892 118 ft 0 kts 245°
2026-04-14 08:29 50.91131 4.49856 118 ft 24 kts 245°
2026-04-14 08:30 50.90953 4.49248 117 ft 94 kts 245°
2026-04-14 08:30 50.90597 4.48022 121 ft 148 kts 245°
2026-04-14 08:30 50.90147 4.46465 568 ft 156 kts 245°
2026-04-14 08:30 50.89692 4.44880 1207 ft 159 kts 244°
2026-04-14 08:31 50.89221 4.43266 1881 ft 164 kts 241°
2026-04-14 08:31 50.87089 4.42180 2605 ft 202 kts 153°
2026-04-14 08:31 50.85968 4.43728 2910 ft 228 kts 132°
2026-04-14 08:32 50.84876 4.45721 3331 ft 252 kts 131°
2026-04-14 08:32 50.83722 4.47908 4030 ft 263 kts 130°
2026-04-14 08:32 50.82543 4.50144 4915 ft 267 kts 131°
2026-04-14 08:32 50.81341 4.52413 5794 ft 271 kts 131°
2026-04-14 08:33 50.80133 4.54716 6694 ft 273 kts 131°
2026-04-14 08:33 50.78914 4.57041 7530 ft 277 kts 131°
2026-04-14 08:33 50.77678 4.59403 8345 ft 281 kts 130°
2026-04-14 08:33 50.76425 4.61800 9154 ft 285 kts 130°
2026-04-14 08:34 50.75151 4.64236 9966 ft 290 kts 130°
2026-04-14 08:34 50.73863 4.66685 10550 ft 301 kts 130°
2026-04-14 08:34 50.72470 4.69325 10764 ft 325 kts 130°
2026-04-14 08:34 50.70982 4.72143 11088 ft 343 kts 130°
2026-04-14 08:35 50.69407 4.75129 11255 ft 365 kts 130°
2026-04-14 08:35 50.67745 4.78281 11491 ft 382 kts 130°
2026-04-14 08:35 50.66014 4.81556 11747 ft 393 kts 130°
2026-04-14 08:35 50.64247 4.84900 12244 ft 399 kts 130°
2026-04-14 08:36 50.62459 4.88282 12835 ft 404 kts 130°
2026-04-14 08:36 50.60648 4.91703 13410 ft 410 kts 129°
2026-04-14 08:36 50.58810 4.95168 13985 ft 415 kts 129°
2026-04-14 08:36 50.56947 4.98672 14509 ft 419 kts 129°
2026-04-14 08:37 50.55069 5.02198 15070 ft 423 kts 130°
2026-04-14 08:37 50.53173 5.05753 15631 ft 425 kts 130°
2026-04-14 08:37 50.51265 5.09320 16185 ft 428 kts 130°
2026-04-14 08:37 50.49343 5.12907 16735 ft 430 kts 130°
2026-04-14 08:38 50.47409 5.16516 17263 ft 433 kts 130°
2026-04-14 08:38 50.45463 5.20142 17768 ft 436 kts 130°
2026-04-14 08:38 50.43499 5.23793 18263 ft 439 kts 130°
2026-04-14 08:38 50.41524 5.27456 18708 ft 441 kts 130°
2026-04-14 08:39 50.39536 5.31139 19117 ft 444 kts 130°
2026-04-14 08:39 50.37534 5.34847 19515 ft 447 kts 130°
2026-04-14 08:39 50.35523 5.38567 19899 ft 449 kts 130°
2026-04-14 08:39 50.33500 5.42311 20275 ft 451 kts 130°
2026-04-14 08:40 50.31464 5.46072 20644 ft 454 kts 130°
2026-04-14 08:40 50.29420 5.49836 21002 ft 456 kts 130°
2026-04-14 08:40 50.27357 5.53627 21353 ft 458 kts 130°
2026-04-14 08:40 50.25291 5.57419 21723 ft 459 kts 130°
2026-04-14 08:41 50.23213 5.61227 22069 ft 461 kts 131°
2026-04-14 08:41 50.21128 5.65048 22396 ft 463 kts 131°
2026-04-14 08:41 50.19033 5.68882 22702 ft 465 kts 131°
2026-04-14 08:41 50.16928 5.72726 23005 ft 467 kts 131°
2026-04-14 08:42 50.14811 5.76589 23310 ft 469 kts 131°
2026-04-14 08:42 50.12687 5.80459 23630 ft 471 kts 131°
2026-04-14 08:42 50.10553 5.84338 23878 ft 473 kts 131°
2026-04-14 08:42 50.08406 5.88236 24079 ft 475 kts 131°
2026-04-14 08:43 50.06250 5.92144 24312 ft 477 kts 131°
2026-04-14 08:43 50.04087 5.96059 24549 ft 477 kts 131°
2026-04-14 08:43 50.01919 5.99982 24787 ft 478 kts 131°
2026-04-14 08:43 49.99777 6.03846 25019 ft 479 kts 131°
2026-04-14 08:44 49.97603 6.07760 25259 ft 479 kts 131°
2026-04-14 08:44 49.95393 6.11730 25506 ft 479 kts 131°
2026-04-14 08:44 49.93210 6.15642 25753 ft 480 kts 131°
2026-04-14 08:44 49.91057 6.19498 26005 ft 480 kts 131°
2026-04-14 08:45 49.88874 6.23412 26256 ft 480 kts 131°
2026-04-14 08:45 49.86689 6.27326 26511 ft 480 kts 131°
2026-04-14 08:45 49.84503 6.31234 26768 ft 480 kts 131°
2026-04-14 08:45 49.82317 6.35137 27025 ft 480 kts 131°
2026-04-14 08:46 49.80135 6.39028 27279 ft 479 kts 131°
2026-04-14 08:46 49.77950 6.42920 27546 ft 478 kts 131°
2026-04-14 08:46 49.75772 6.46794 27810 ft 478 kts 131°
2026-04-14 08:46 49.73598 6.50674 28077 ft 477 kts 129°
2026-04-14 08:47 49.71778 6.54938 28353 ft 476 kts 113°
2026-04-14 08:47 49.70871 6.59832 28619 ft 474 kts 100°
2026-04-14 08:47 49.70069 6.64768 28889 ft 475 kts 110°
2026-04-14 08:47 49.68589 6.69317 29169 ft 475 kts 122°
2026-04-14 08:48 49.66796 6.73596 29454 ft 475 kts 123°
2026-04-14 08:48 49.64979 6.77853 29746 ft 475 kts 123°
2026-04-14 08:48 49.63144 6.82087 30033 ft 474 kts 123°
2026-04-14 08:48 49.61303 6.86291 30309 ft 473 kts 124°
2026-04-14 08:49 49.59457 6.90487 30554 ft 473 kts 124°
2026-04-14 08:49 49.57613 6.94682 30792 ft 472 kts 123°
2026-04-14 08:49 49.55776 6.98874 31031 ft 472 kts 123°
2026-04-14 08:49 49.53946 7.03058 31289 ft 472 kts 123°
2026-04-14 08:50 49.52115 7.07252 31537 ft 471 kts 123°
2026-04-14 08:50 49.50288 7.11433 31790 ft 471 kts 123°
2026-04-14 08:50 49.48461 7.15605 32046 ft 471 kts 123°
2026-04-14 08:50 49.46629 7.19780 32318 ft 470 kts 124°
2026-04-14 08:51 49.44799 7.23934 32576 ft 469 kts 124°
2026-04-14 08:51 49.42973 7.28068 32835 ft 468 kts 124°
2026-04-14 08:51 49.41147 7.32195 33104 ft 467 kts 124°
2026-04-14 08:51 49.39317 7.36322 33274 ft 469 kts 124°
2026-04-14 08:52 49.37477 7.40464 33412 ft 470 kts 124°
2026-04-14 08:52 49.35632 7.44619 33549 ft 472 kts 124°
2026-04-14 08:52 49.33783 7.48783 33684 ft 473 kts 124°
2026-04-14 08:52 49.31949 7.52894 33805 ft 474 kts 124°
2026-04-14 08:53 49.30088 7.57065 33938 ft 475 kts 124°
2026-04-14 08:53 49.28223 7.61242 34151 ft 473 kts 125°
2026-04-14 08:53 49.26370 7.65387 34332 ft 472 kts 125°
2026-04-14 08:53 49.24515 7.69526 34505 ft 471 kts 125°
2026-04-14 08:54 49.22658 7.73660 34656 ft 471 kts 125°
2026-04-14 08:54 49.20803 7.77783 34836 ft 471 kts 125°
2026-04-14 08:54 49.18945 7.81899 34972 ft 471 kts 125°
2026-04-14 08:54 49.17083 7.86026 35116 ft 471 kts 124°
2026-04-14 08:55 49.15223 7.90147 35246 ft 471 kts 124°
2026-04-14 08:55 49.13362 7.94262 35378 ft 471 kts 125°
2026-04-14 08:55 49.11495 7.98386 35504 ft 471 kts 125°
2026-04-14 08:55 49.09637 8.02492 35667 ft 470 kts 125°
2026-04-14 08:56 49.07775 8.06591 35807 ft 470 kts 125°
2026-04-14 08:56 49.05913 8.10683 35929 ft 470 kts 125°
2026-04-14 08:56 49.04046 8.14774 36049 ft 470 kts 125°
2026-04-14 08:56 49.02180 8.18855 36176 ft 469 kts 125°
2026-04-14 08:57 49.00311 8.22939 36301 ft 469 kts 125°
2026-04-14 08:57 48.98446 8.27014 36427 ft 469 kts 125°
2026-04-14 08:57 48.96580 8.31084 36551 ft 469 kts 125°
2026-04-14 08:57 48.94717 8.35155 36676 ft 469 kts 124°
2026-04-14 08:58 48.92860 8.39228 36802 ft 468 kts 124°
2026-04-14 08:58 48.91006 8.43292 36932 ft 468 kts 124°
2026-04-14 08:58 48.89148 8.47359 37040 ft 468 kts 124°
2026-04-14 08:58 48.87293 8.51411 37191 ft 468 kts 124°
2026-04-14 08:59 48.85434 8.55464 37302 ft 467 kts 124°
2026-04-14 08:59 48.83572 8.59505 37428 ft 467 kts 124°
2026-04-14 08:59 48.81711 8.63544 37577 ft 467 kts 124°
2026-04-14 08:59 48.79850 8.67574 37700 ft 466 kts 124°
2026-04-14 09:00 48.78012 8.71548 37828 ft 466 kts 124°
2026-04-14 09:00 48.76123 8.75626 37960 ft 466 kts 124°
2026-04-14 09:00 48.74286 8.79586 38088 ft 465 kts 124°
2026-04-14 09:00 48.72427 8.83589 38224 ft 465 kts 124°
2026-04-14 09:01 48.70566 8.87589 38362 ft 464 kts 124°
2026-04-14 09:01 48.68708 8.91573 38500 ft 463 kts 124°
2026-04-14 09:01 48.66852 8.95545 38639 ft 462 kts 124°
2026-04-14 09:01 48.64996 8.99516 38774 ft 461 kts 124°
2026-04-14 09:02 48.63145 9.03472 38891 ft 461 kts 124°
2026-04-14 09:02 48.61297 9.07421 39024 ft 459 kts 124°
2026-04-14 09:02 48.57603 9.15302 39140 ft 461 kts 125°
2026-04-14 09:03 48.53876 9.23224 39138 ft 464 kts 125°
2026-04-14 09:03 48.50118 9.31185 39133 ft 467 kts 125°
2026-04-14 09:04 48.46334 9.39174 39129 ft 468 kts 125°
2026-04-14 09:04 48.42543 9.47161 39132 ft 469 kts 125°
2026-04-14 09:05 48.38740 9.55140 39130 ft 470 kts 126°
2026-04-14 09:05 48.34905 9.63142 39129 ft 473 kts 126°
2026-04-14 09:06 48.31036 9.71152 39139 ft 474 kts 126°
2026-04-14 09:06 48.27162 9.79168 39148 ft 474 kts 126°
2026-04-14 09:07 48.23283 9.87177 39150 ft 475 kts 126°
2026-04-14 09:07 48.19395 9.95162 39175 ft 473 kts 127°
2026-04-14 09:08 48.15544 10.03059 39164 ft 472 kts 127°
2026-04-14 09:08 48.11649 10.11018 39164 ft 470 kts 127°
2026-04-14 09:09 48.07800 10.18839 39172 ft 470 kts 127°
2026-04-14 09:09 48.03936 10.26705 39172 ft 469 kts 127°
2026-04-14 09:10 48.00048 10.34571 39162 ft 467 kts 127°
2026-04-14 09:10 47.96194 10.42355 39153 ft 466 kts 127°
2026-04-14 09:11 47.92371 10.50063 39151 ft 465 kts 127°
2026-04-14 09:11 47.88527 10.57792 39147 ft 464 kts 127°
2026-04-14 09:12 47.84683 10.65502 39136 ft 464 kts 127°
2026-04-14 09:12 47.80828 10.73198 39139 ft 464 kts 128°
2026-04-14 09:13 47.76964 10.80880 39137 ft 464 kts 128°
2026-04-14 09:13 47.73098 10.88553 39137 ft 464 kts 128°
2026-04-14 09:14 47.69226 10.96212 39124 ft 464 kts 128°
2026-04-14 09:14 47.65352 11.03871 39118 ft 465 kts 128°
2026-04-14 09:15 47.61466 11.11536 39121 ft 465 kts 128°
2026-04-14 09:15 47.57567 11.19202 39113 ft 466 kts 128°
2026-04-14 09:16 47.53655 11.26862 39105 ft 466 kts 128°
2026-04-14 09:16 47.49761 11.34466 39110 ft 467 kts 128°
2026-04-14 09:17 47.45836 11.42109 39108 ft 467 kts 128°
2026-04-14 09:17 47.41905 11.49734 39106 ft 467 kts 128°
2026-04-14 09:18 47.37971 11.57353 39101 ft 467 kts 129°
2026-04-14 09:18 47.34033 11.64966 39103 ft 467 kts 129°
2026-04-14 09:19 47.30090 11.72560 39109 ft 466 kts 129°
2026-04-14 09:19 47.26153 11.80118 39107 ft 465 kts 129°
2026-04-14 09:20 47.22884 11.86383 39089 ft 462 kts 129°
2026-04-14 09:20 47.19370 11.94121 39080 ft 452 kts 122°
2026-04-14 09:21 47.16178 12.02063 39053 ft 451 kts 122°
2026-04-14 09:21 47.13000 12.09981 39043 ft 449 kts 122°
2026-04-14 09:22 47.09818 12.17875 39038 ft 449 kts 122°
2026-04-14 09:22 47.06629 12.25758 39042 ft 449 kts 122°
2026-04-14 09:23 47.05034 12.29683 38748 ft 448 kts 122°
2026-04-14 09:23 47.03437 12.33606 38049 ft 447 kts 122°
2026-04-14 09:23 47.01841 12.37516 37367 ft 447 kts 123°
2026-04-14 09:23 47.00250 12.41413 36715 ft 445 kts 123°
2026-04-14 09:24 46.98667 12.45293 36065 ft 443 kts 123°
2026-04-14 09:24 46.97088 12.49163 35407 ft 442 kts 124°
2026-04-14 09:24 46.95511 12.53020 34751 ft 441 kts 124°
2026-04-14 09:24 46.93937 12.56865 34101 ft 440 kts 124°
2026-04-14 09:25 46.92367 12.60700 33426 ft 438 kts 124°
2026-04-14 09:25 46.90808 12.64501 32865 ft 433 kts 124°
2026-04-14 09:25 46.89280 12.68207 32304 ft 429 kts 124°
2026-04-14 09:25 46.87742 12.71925 31751 ft 426 kts 124°
2026-04-14 09:26 46.86218 12.75611 31214 ft 422 kts 123°
2026-04-14 09:26 46.84708 12.79265 30685 ft 418 kts 123°
2026-04-14 09:26 46.83209 12.82886 30171 ft 415 kts 123°
2026-04-14 09:26 46.81720 12.86477 29589 ft 412 kts 123°
2026-04-14 09:27 46.80243 12.90034 29025 ft 408 kts 123°
2026-04-14 09:27 46.78777 12.93572 28480 ft 405 kts 123°
2026-04-14 09:27 46.77326 12.97065 27951 ft 401 kts 123°
2026-04-14 09:27 46.75883 13.00525 27436 ft 398 kts 123°
2026-04-14 09:28 46.74451 13.03952 26935 ft 394 kts 123°
2026-04-14 09:28 46.73032 13.07346 26437 ft 391 kts 123°
2026-04-14 09:28 46.71623 13.10713 25950 ft 387 kts 123°
2026-04-14 09:28 46.70226 13.14048 25447 ft 384 kts 123°
2026-04-14 09:29 46.68843 13.17359 24987 ft 381 kts 122°
2026-04-14 09:29 46.67468 13.20639 24517 ft 378 kts 122°
2026-04-14 09:29 46.66099 13.23894 24075 ft 375 kts 122°
2026-04-14 09:29 46.64740 13.27117 23631 ft 372 kts 122°
2026-04-14 09:30 46.63390 13.30317 23125 ft 370 kts 122°
2026-04-14 09:30 46.62048 13.33494 22643 ft 367 kts 122°
2026-04-14 09:30 46.60717 13.36641 22174 ft 364 kts 122°
2026-04-14 09:30 46.59397 13.39770 21716 ft 362 kts 122°
2026-04-14 09:31 46.58090 13.42872 21255 ft 358 kts 122°
2026-04-14 09:31 46.56793 13.45943 20797 ft 355 kts 122°
2026-04-14 09:31 46.55506 13.48986 20333 ft 353 kts 122°
2026-04-14 09:31 46.54226 13.52003 19944 ft 349 kts 122°
2026-04-14 09:32 46.52954 13.54987 19523 ft 346 kts 123°
2026-04-14 09:32 46.51697 13.57938 19127 ft 343 kts 122°
2026-04-14 09:32 46.49189 13.63820 18636 ft 341 kts 122°
2026-04-14 09:33 46.47940 13.66741 18182 ft 340 kts 123°
2026-04-14 09:33 46.46712 13.69655 17702 ft 338 kts 120°
2026-04-14 09:33 46.45723 13.72736 17298 ft 335 kts 115°
2026-04-14 09:33 46.44784 13.75821 16847 ft 334 kts 115°
2026-04-14 09:34 46.43841 13.78884 16415 ft 332 kts 116°
2026-04-14 09:34 46.42907 13.81896 15956 ft 332 kts 116°
2026-04-14 09:34 46.41959 13.84948 15538 ft 332 kts 116°
2026-04-14 09:34 46.41018 13.87985 15147 ft 329 kts 116°
2026-04-14 09:35 46.40080 13.91005 14720 ft 328 kts 116°
2026-04-14 09:35 46.39142 13.94020 14299 ft 328 kts 116°
2026-04-14 09:35 46.38209 13.97023 13950 ft 326 kts 116°
2026-04-14 09:35 46.37283 14.00003 13589 ft 323 kts 116°
2026-04-14 09:36 46.36265 14.02882 13159 ft 320 kts 123°
2026-04-14 09:36 46.35076 14.05580 12735 ft 317 kts 124°
2026-04-14 09:36 46.33865 14.08237 12324 ft 315 kts 125°
2026-04-14 09:36 46.32655 14.10866 11954 ft 312 kts 127°
2026-04-14 09:37 46.31342 14.13331 11591 ft 308 kts 132°
2026-04-14 09:37 46.29931 14.15635 11188 ft 306 kts 129°
2026-04-14 09:37 46.28633 14.18095 10747 ft 307 kts 129°
2026-04-14 09:37 46.27315 14.20515 10377 ft 305 kts 128°
2026-04-14 09:38 46.26116 14.23033 10049 ft 301 kts 125°
2026-04-14 09:38 46.24975 14.25524 9799 ft 295 kts 125°
2026-04-14 09:38 46.23853 14.27973 9538 ft 289 kts 125°
2026-04-14 09:38 46.22753 14.30363 9267 ft 282 kts 125°
2026-04-14 09:39 46.21675 14.32694 8995 ft 276 kts 125°
2026-04-14 09:39 46.20616 14.34973 8711 ft 271 kts 125°
2026-04-14 09:39 46.19553 14.37236 8245 ft 273 kts 124°
2026-04-14 09:39 46.18482 14.39490 7843 ft 272 kts 124°
2026-04-14 09:40 46.17423 14.41691 7469 ft 270 kts 124°
2026-04-14 09:40 46.16350 14.43896 7083 ft 268 kts 124°
2026-04-14 09:40 46.15275 14.46080 6711 ft 266 kts 124°
2026-04-14 09:40 46.14201 14.48244 6318 ft 265 kts 125°
2026-04-14 09:41 46.13138 14.50392 5965 ft 261 kts 125°
2026-04-14 09:41 46.12089 14.52488 5681 ft 255 kts 124°
2026-04-14 09:41 46.11058 14.54523 5403 ft 249 kts 124°
2026-04-14 09:41 46.10036 14.56509 5125 ft 244 kts 124°
2026-04-14 09:42 46.09026 14.58443 4852 ft 239 kts 125°
2026-04-14 09:42 46.08044 14.60337 4564 ft 233 kts 120°
2026-04-14 09:42 46.07561 14.62472 4280 ft 222 kts 86°
2026-04-14 09:42 46.08028 14.64513 4080 ft 213 kts 57°
2026-04-14 09:43 46.09127 14.65968 3991 ft 220 kts 27°
2026-04-14 09:43 46.10591 14.66365 4022 ft 212 kts 355°
2026-04-14 09:43 46.11956 14.65658 3950 ft 209 kts 327°
2026-04-14 09:43 46.12921 14.64140 3946 ft 203 kts 308°
2026-04-14 09:44 46.13726 14.62529 3778 ft 194 kts 310°
2026-04-14 09:44 46.14542 14.61002 3484 ft 191 kts 310°
2026-04-14 09:44 46.15332 14.59481 3250 ft 188 kts 310°
2026-04-14 09:44 46.16113 14.57975 3004 ft 187 kts 308°
2026-04-14 09:45 46.16878 14.56482 2789 ft 181 kts 308°
2026-04-14 09:45 46.17612 14.55064 2537 ft 169 kts 307°
2026-04-14 09:45 46.18275 14.53764 2344 ft 156 kts 306°
2026-04-14 09:45 46.18893 14.52541 2069 ft 151 kts 306°
2026-04-14 09:46 46.19514 14.51316 1879 ft 146 kts 306°
2026-04-14 09:46 46.20096 14.50171 1685 ft 143 kts 306°
2026-04-14 09:46 46.20692 14.49013 1504 ft 144 kts 307°
2026-04-14 09:46 46.21294 14.47846 1304 ft 144 kts 306°
2026-04-14 09:47 46.21873 14.46738 1226 ft 126 kts 304°
2026-04-14 09:47 46.22298 14.45899 1248 ft 80 kts 307°
2026-04-14 09:47 46.22515 14.45499 1258 ft 23 kts 322°
2026-04-14 09:47 46.22648 14.45380 1256 ft 21 kts 336°
2026-04-14 09:48 46.22767 14.45327 1258 ft 13 kts 349°
2026-04-14 09:48 46.22839 14.45317 1258 ft 9 kts
2026-04-14 09:48 46.22886 14.45359 1263 ft 7 kts 36°
2026-04-14 09:48 46.22923 14.45398 1267 ft 6 kts 36°
2026-04-14 09:49 46.22955 14.45399 1258 ft 4 kts 327°
2026-04-14 09:49 46.22980 14.45354 1264 ft 6 kts 307°
2026-04-14 09:49 46.23003 14.45310 1261 ft 5 kts 307°
2026-04-14 09:49 46.23029 14.45259 1262 ft 9 kts 307°
2026-04-14 09:50 46.23069 14.45230 1262 ft 6 kts 25°
2026-04-14 09:50 46.23096 14.45258 1267 ft 2 kts 36°
2026-04-14 09:50 46.23098 14.45260 1266 ft 0 kts 36°
2026-04-14 09:52 46.23101 14.45259 1265 ft 1 kts
2026-04-14 09:52 46.23087 14.45234 1264 ft 7 kts 219°
2026-04-14 09:52 46.23053 14.45226 1264 ft 5 kts 157°
2026-04-14 09:52 46.23029 14.45261 1262 ft 8 kts 127°
2026-04-14 09:53 46.22989 14.45338 1266 ft 6 kts 127°
2026-04-14 09:53 46.22984 14.45355 1261 ft 5 kts 103°
2026-04-14 09:53 46.23004 14.45395 1258 ft 5 kts 40°
2026-04-14 09:53 46.23024 14.45417 1258 ft 1 kts 36°
2026-04-14 09:54 46.23027 14.45420 1258 ft 0 kts 36°